sat.trackr.live / text

‹ back to catalog

GALAXY 37 (G-37)

NORAD 57493 · 2023-112A

PAYLOAD ACTIVE UNKNOWN

§ Identity

Operator
Country
ITSO
Launch date
2023-08-03
Launch site
AFETR
Launch vehicle
Mass (kg)
RCS (m²)

Purposes: comms

External: N2YO · Heavens-Above · Gunter

§ Orbital elements

Epoch: 2026-05-25T03:50:38.783040Z

Period
1,436.10 min
Inclination
0.0174°
Eccentricity
0.0002035
Mean motion
1.00271768 rev/d
Perigee alt
35,778.0 km
Apogee alt
35,795.2 km
Semi-major
42,164.7 km
B*
0.0000e+0
RAAN
328.4278°
Arg perigee
87.5457°
Mean anomaly
117.4410°
Rev number
1,031

§ Raw data

GALAXY 37 (G-37)1 57493U 23112A   26145.16017110  .00000046  00000+0  00000+0 0  99902 57493   0.0174 328.4278 0002035  87.5457 117.4410  1.00271768 10317

JSON: /api/v1/satellites/57493 · /tle

For live sub-satellite position, see the globe view (requires WebGL).

§ Visibility from observer

Set your observer location to see the next 7 days of passes ≥ 10°. The values pass through the URL so the page stays shareable.

No JS? Fill the form by hand. The geolocation button needs JavaScript.